Estación de San Fernando
Ultimos registro cada 15 minutos 50
| N° | Estación | Fecha / Hora | Temperatura | Humedad | Lluvia | Velocidad | Dirección | Radiación | Presion |
| 50 | San Fernando | 06-05-2026 12:15 | 14,4 | 88 | 0 | 2,2 | 153 | 33 | 1015,5 |
| 49 | San Fernando | 06-05-2026 12:00 | 14,2 | 90 | 0,3 | 0,9 | 29 | 84 | 1015,2 |
| 48 | San Fernando | 06-05-2026 11:45 | 14,4 | 90 | 0 | 1,8 | 324 | 137 | 1015,1 |
| 47 | San Fernando | 06-05-2026 11:30 | 14,6 | 92 | 0 | 1,3 | 41 | 114 | 1015 |
| 46 | San Fernando | 06-05-2026 11:15 | 14,2 | 92 | 0 | 0,9 | 30 | 163 | 1014,6 |
| 45 | San Fernando | 06-05-2026 11:00 | 13,8 | 92 | 0,3 | 0 | 60 | 141 | 1014,7 |
| 44 | San Fernando | 06-05-2026 10:45 | 13,3 | 92 | 0 | 0 | 36 | 144 | 1014,6 |
| 43 | San Fernando | 06-05-2026 10:30 | 12,8 | 91 | 0,5 | 0,4 | 35 | 183 | 1013,8 |
| 42 | San Fernando | 06-05-2026 10:15 | 12,8 | 88 | 0,5 | 0,9 | 45 | 33 | 1013,9 |
| 41 | San Fernando | 06-05-2026 10:00 | 13,2 | 85 | 0 | 0,4 | 62 | 14 | 1013,4 |
| 40 | San Fernando | 06-05-2026 09:45 | 13,2 | 85 | 0 | 2,7 | 29 | 113 | 1012,9 |
| 39 | San Fernando | 06-05-2026 09:30 | 12,9 | 87 | 0 | 2,2 | 67 | 91 | 1013,1 |
| 38 | San Fernando | 06-05-2026 09:15 | 12,6 | 87 | 0 | 1,3 | 49 | 100 | 1013,3 |
| 37 | San Fernando | 06-05-2026 09:00 | 12,5 | 89 | 0 | 1,3 | 54 | 190 | 1012,9 |
| 36 | San Fernando | 06-05-2026 08:45 | 12,2 | 89 | 0 | 2,2 | 74 | 54 | 1012,7 |
| 35 | San Fernando | 06-05-2026 08:30 | 12,3 | 89 | 0,5 | 1,8 | 20 | 9 | 1013,1 |
| 34 | San Fernando | 06-05-2026 08:15 | 12,3 | 87 | 0 | 0,9 | 355 | 7 | 1013,7 |
| 33 | San Fernando | 06-05-2026 08:00 | 12,3 | 88 | 0 | 0 | 89 | 54 | 1013,4 |
| 32 | San Fernando | 06-05-2026 07:45 | 12 | 89 | 0 | 1,8 | 16 | 63 | 1013,1 |
| 31 | San Fernando | 06-05-2026 07:30 | 11,4 | 91 | 0 | 0,9 | 63 | 65 | 1012,9 |
| 30 | San Fernando | 06-05-2026 07:15 | 10,7 | 93 | 0 | 0,9 | 78 | 0 | 1012,6 |
| 29 | San Fernando | 06-05-2026 07:00 | 10,3 | 93 | 0 | 0,9 | 112 | 0 | 1012,3 |
| 28 | San Fernando | 06-05-2026 06:45 | 9,6 | 95 | 0 | 1,3 | 92 | 0 | 1012,4 |
| 27 | San Fernando | 06-05-2026 06:30 | 8,9 | 94 | 0 | 0,4 | 110 | 0 | 1012,5 |
| 26 | San Fernando | 06-05-2026 06:15 | 8,7 | 93 | 0 | 0,4 | 99 | 0 | 1012,6 |
| 25 | San Fernando | 06-05-2026 06:00 | 8,7 | 93 | 0 | 0 | 99 | 0 | 1012,6 |
| 24 | San Fernando | 06-05-2026 05:45 | 8,9 | 93 | 0 | 0,4 | 108 | 0 | 1012,5 |
| 23 | San Fernando | 06-05-2026 05:30 | 8,8 | 94 | 0 | 0 | 66 | 0 | 1012,6 |
| 22 | San Fernando | 06-05-2026 05:15 | 8,6 | 92 | 0,3 | 0 | 66 | 0 | 1012,5 |
| 21 | San Fernando | 06-05-2026 05:00 | 8,9 | 92 | 0 | 0 | 66 | 0 | 1012,5 |
| 20 | San Fernando | 06-05-2026 04:45 | 8,9 | 92 | 0 | 0 | 66 | 0 | 1012,5 |
| 19 | San Fernando | 06-05-2026 04:30 | 9,3 | 91 | 0 | 0 | 66 | 0 | 1012,5 |
| 18 | San Fernando | 06-05-2026 04:15 | 9,7 | 91 | 0 | 0 | 66 | 0 | 1012,2 |
| 17 | San Fernando | 06-05-2026 04:00 | 10,1 | 90 | 0 | 0 | 66 | 0 | 1012,6 |
| 16 | San Fernando | 06-05-2026 03:45 | 10,5 | 90 | 0 | 0 | 66 | 0 | 1012,8 |
| 15 | San Fernando | 06-05-2026 03:30 | 10,7 | 91 | 0 | 0,9 | 87 | 0 | 1012,9 |
| 14 | San Fernando | 06-05-2026 03:15 | 10,7 | 91 | 0 | 0 | 120 | 0 | 1012,8 |
| 13 | San Fernando | 06-05-2026 03:00 | 10,6 | 91 | 0 | 0 | 80 | 0 | 1012,8 |
| 12 | San Fernando | 06-05-2026 02:45 | 10,7 | 91 | 0 | 0,4 | 80 | 0 | 1012,6 |
| 11 | San Fernando | 06-05-2026 02:30 | 10,7 | 91 | 0 | 0,9 | 96 | 0 | 1012,4 |
| 10 | San Fernando | 06-05-2026 02:15 | 10,9 | 90 | 0 | 1,3 | 48 | 0 | 1012,3 |
| 9 | San Fernando | 06-05-2026 02:00 | 11,4 | 89 | 0 | 1,8 | 93 | 0 | 1012,3 |
| 8 | San Fernando | 06-05-2026 01:45 | 11,1 | 91 | 0 | 0,4 | 85 | 0 | 1012,4 |
| 7 | San Fernando | 06-05-2026 01:30 | 11 | 90 | 0 | 0 | 105 | 0 | 1012,5 |
| 6 | San Fernando | 06-05-2026 01:15 | 11,1 | 91 | 0 | 0,4 | 82 | 0 | 1012,7 |
| 5 | San Fernando | 06-05-2026 01:00 | 11,4 | 90 | 0 | 0,4 | 120 | 0 | 1012,9 |
| 4 | San Fernando | 06-05-2026 00:45 | 11,3 | 91 | 0 | 1,8 | 75 | 0 | 1013,1 |
| 3 | San Fernando | 06-05-2026 00:30 | 11,1 | 91 | 0 | 0 | 72 | 0 | 1013,3 |
| 2 | San Fernando | 06-05-2026 00:15 | 11,1 | 90 | 0 | 0 | 72 | 0 | 1013,3 |
| 1 | San Fernando | 06-05-2026 00:00 | 11,3 | 90 | 0 | 0 | 72 | 0 | 1013,3 |